Location: ???????????
(54.5822°N, 39.1075°E)
Time: 13:18:26
(UTC+00:00)

ATLAS 3B R/B - Pass Details

Date: 19 May 2025
Orbit: 935 x 1258 km, 63.8° (Epoch: 19 June)

Event Time Altitude Azimuth Distance (km) Brightness Sun altitude
Exits shadow 19:42:57 16° 159° (SSE) 2,650 4.1 -12.6°
Maximum altitude 19:47:26 29° 112° (ESE) 2,071 3.8 -12.9°
Drops below altitude 10° 19:53:50 10° 57° (ENE) 3,227 5.4 -13.2°
Sets 19:57:03 0° 47° (NE) 4,215 6.1 -13.4°
